Regional Weather Roundup
Issued by NWS

Home | Current Version | Previous Version | Graphics & Text | Print | Product List | Glossary On
Versions: 1 2 3 4 5 6 7 8 9 10 11 12 13 14 15 16 17 18 19 20 21 22 23 24 25 26 27 28 29 30 31 32 33 34 35 36 37 38 39 40 41 42 43 44 45 46 47 48 49 50
000
ASUS43 KMKX 010511
RWRWI

WISCONSIN REGIONAL WEATHER ROUNDUP
NATIONAL WEATHER SERVICE MILWAUKEE/SULLIVAN WI
1200 AM CDT SAT NOV 01 2014

NOTE: "FAIR" INDICATES FEW OR NO CLOUDS BELOW 12,000 FEET WITH NO
SIGNIFICANT WEATHER AND/OR OBSTRUCTIONS TO VISIBILITY.

WIZ001-002-006>008-014>016-023>028-010600-
NORTHWEST WISCONSIN

CITY           SKY/WX    TMP DP  RH WIND       PRES   REMARKS
SUPERIOR ARPT  CLEAR     20  18  90 CALM      30.47F
ASHLAND        CLEAR     21  18  88 SW5       30.48F WCI  15
HAYWARD        NOT AVBL
SIREN          CLEAR     19  15  83 CALM      30.48F
CUMBERLAND     CLEAR     23  19  86 CALM      30.48S
RICE LAKE      CLEAR     22  21  94 CALM      30.50S
CHETEK         CLEAR     21  19  89 CALM      30.49S
LADYSMITH      CLEAR     22  19  89 CALM      30.49R
EAU CLAIRE     NOT AVBL
MENOMONIE      CLEAR     26  19  73 CALM      30.50S
NEW RICHMOND   CLEAR     22  17  82 CALM      30.49S
OSCEOLA        CLEAR     21  18  86 CALM      30.51F
$$

WIZ003>005-009-010-017-018-010600-
NORTH CENTRAL WISCONSIN

CITY           SKY/WX    TMP DP  RH WIND       PRES   REMARKS
MANITOWISH WTR FOG       14  13  94 CALM      30.43F VSB 1
ARBOR VITAE    FOG       19  17  92 CALM      30.43F VSB 1/2
WOODRUFF       FOG       19  17  92 CALM      30.43F VSB 1/2
RHINELANDER    NOT AVBL
EAGLE RIVER    CLEAR     19  19  98 CALM      30.42F
LAND O LAKES   PTCLDY    19  18  95 CALM      30.43F
PHILLIPS       CLEAR     19  16  90 CALM      30.45S
TOMAHAWK       CLEAR     20  18  91 CALM      30.45F
MEDFORD        CLEAR     23  19  84 NE5       30.44F WCI  16
MERRILL        CLEAR     24  19  83 CALM      30.45F
$$

WIZ029-030-035-036-043>047-010600-
CENTRAL WISCONSIN

CITY           SKY/WX    TMP DP  RH WIND       PRES   REMARKS
WAUSAU         NOT AVBL
MOSINEE        FAIR      28  21  74 N6        30.45F WCI  22
MARSHFIELD     NOT AVBL
STEVENS POINT  CLEAR     21  16  81 CALM      30.46S
WAUPACA        PTCLDY    29  19  65 NW3       30.46F
WAUTOMA        NOT AVBL
WISC RAPIDS    NOT AVBL
CAMP DOUGLAS   CLEAR     21  20  98 CALM      30.46F
$$

WIZ011>013-019>022-031-037>040-048>050-010600-
NORTHEAST WISCONSIN

CITY           SKY/WX    TMP DP  RH WIND       PRES   REMARKS
ANTIGO         CLEAR     26  20  80 N3        30.43F
SHAWANO        CLOUDY    33  20  57 N6        30.46S WCI  28
OCONTO         CLOUDY    32  24  71 N7        30.44F WCI  26
STURGEON BAY   CLOUDY    34  21  60 NE13      30.42S WCI  25
GREEN BAY      NOT AVBL
MANITOWOC      NOT AVBL
APPLETON       CLOUDY    32  19  59 N8        30.44F WCI  25
CLINTONVILLE   CLOUDY    32  19  59 N7        30.46S WCI  26
OSHKOSH        CLOUDY    33  19  56 N17G29    30.44F WCI  22
$$

WIZ032>034-041-042-053>061-010600-
SOUTHWEST WISCONSIN

CITY           SKY/WX    TMP DP  RH WIND       PRES   REMARKS
LA CROSSE      NOT AVBL
SPARTA         CLEAR     23  19  81 CALM      30.48F
VIROQUA        CLEAR     26  20  78 CALM      30.45S
BOSCOBEL       CLEAR     22  17  81 CALM      30.48S
PRAIRIE DU CHI CLEAR     32  18  57 CALM      30.48S
PLATTEVILLE    CLEAR     26  19  73 N7        30.46R WCI  19
$$

WIZ056-057-062-063-064-067-068-010600-
SOUTH CENTRAL WISCONSIN

CITY           SKY/WX    TMP DP  RH WIND       PRES   REMARKS
REEDSBURG      CLEAR     28  19  69 N5        30.46S WCI  22
BARABOO/DELLS  CLEAR     28  17  62 NE5       30.45F WCI  23
LONE ROCK      NOT AVBL
MINERAL POINT  CLEAR     30  19  64 N6        30.44S WCI  24
MADISON        PTCLDY    27  18  69 N7        30.45S WCI  19
MIDDLETON      CLEAR     30  19  63 N7        30.45S WCI  23
WATERTOWN      CLOUDY    33  19  57 N12       30.42S WCI  24
MONROE         CLEAR     28  21  74 N9        30.41F WCI  20
JANESVILLE     CLOUDY    36  18  48 N10       30.41S WCI  28
$$

WIZ051-052-058>065-066-070>072-010600-
SOUTHEAST WISCONSIN

CITY           SKY/WX    TMP DP  RH WIND       PRES   REMARKS
MILWAUKEE      FLURRIES  35  20  54 N15       30.38R WCI  25
WAUKESHA       CLOUDY    32  19  59 N15       30.40S WCI  22
MILWAUKEE/TIMM CLOUDY    34  19  55 N17G23    30.39F WCI  23
RACINE         CLOUDY    36  22  56 N15       30.38S WCI  27
BURLINGTON     CLOUDY    32  18  55 N14G22    30.39S WCI  22
KENOSHA        CLOUDY    35  21  56 N14G24    30.37S WCI  26
FOND DU LAC    CLOUDY    34  18  52 N20G25    30.44S WCI  23
SHEBOYGAN      CLOUDY    34  21  59 N15G22    30.40S WCI  24
WEST BEND      CLOUDY    32  19  59 N15G21    30.40S WCI  22
JUNEAU         CLOUDY    32  19  57 N14G23    30.44S WCI  22
$$

LSZ147-162-010600-
LAKE SUPERIOR

STATION/POSITION TIME  TEMP    WIND        PRES    WAVE
                       AIR SEA DIR/SP/G            HT/PER
                 (UTC) (F)     (DEG/KT/KT) (MB)    (FT/S)
W MID LAKE BUOY  0450   35 43   10/  4/  6 1032.3F   2/ 6
DEVILS ISLAND    0500   35     210/  6/  8 1032.6F
PORT WING        0400   27     140/  2/  5 1032.2S
SAXON HARBOR     0400   27     190/  3/  6 1031.8F
$$

LMZ867-665-643>646-010600-
LAKE MICHIGAN

STATION/POSITION TIME  TEMP    WIND        PRES    WAVE
                       AIR SEA DIR/SP/G            HT/PER
                 (UTC) (F)     (DEG/KT/KT) (MB)    (FT/S)
CHAMBERS ISLAND  0400   36     330/ 17/ 24 1030.1F
N MID LAKE BUOY  0350   36 48   10/ 23/ 33 1029.7S   6/ 6
NORTHPORT PIER   0400   36      10/ 19     1030.1F
SISTER BAY       0358           10/ 20/ 28   N/A
KEWAUNEE LAKESHO 0400   35      10/ 12/ 17 1029.0S
SHEBOYGAN LAKESH 0500   36 47  360/ 26/ 30 1030.1F
PORT WASHINGTON  0400   35     350/ 10/ 16 1029.8S
ATWATER BUOY     0500   38      10/ 23/ 31 1029.2R
MILWAUKEE LAKESH 0400   36     340/ 16/ 22   N/A
S MID LAKE BUOY  0450   39 48   10/ 25/ 29 1026.6F  12/ 9
KENOSHA   LAKESH 0500   37     330/ 17/ 33 1027.8R
$$

TC  - TEMPERATURE IN CELSIUS
VSB - VISIBILITY IN STATUTE MILES
WCI - WIND CHILL INDEX
HX  - HEAT INDEX




USA.gov is the U.S. government's official web portal to all federal, state and local government web resources and services.